Santa Barbara, CA

11:35 AM PDT on April 29, 2017 (GMT -0700)
Santa Barbara Municipal

Weather History for KSBA - October, 2012

Change the Weather History Date:

Monday, October 29, 2012

  Actual Average Record
Temperature  
Mean Temperature 60 °F 60 °F  
Max Temperature 73 °F 71 °F 87 °F (2015)
Min Temperature 47 °F 49 °F 31 °F (1971)
Degree Days  
Heating Degree Days 5 6  
Month to date heating degree days 47 111  
Since 1 July heating degree days 127 206  
Cooling Degree Days 0 0  
Month to date cooling degree days 29 11  
Year to date cooling degree days 213 182  
Growing Degree Days 10 (Base 50)    
Moisture  
Dew Point 52 °F    
Average Humidity 73    
Maximum Humidity 100    
Minimum Humidity 46    
Precipitation  
Precipitation 0.00 in 0.04 in 0.64 in (2000)
Month to date precipitation 0.04 0.72  
Year to date precipitation 6.84 13.18  
Since 1 July precipitation 0.14  
Sea Level Pressure  
Sea Level Pressure 30.03 in    
Wind  
Wind Speed 3 mph (SW)    
Max Wind Speed 10 mph    
Max Gust Speed 53 mph    
Visibility 5 miles    
Events Fog    
T = Trace of Precipitation, MM = Missing Value Source: NWS Daily Summary

Daily Weather History Graph

Daily Weather History Graph

Search for Another Location

Airport or City:

Trip Planner

Search our weather history database for the weather conditions in past years. The results will help you decide how hot, cold, wet, or windy it might be!

Date:

Astronomy

Oct. 29, 2012 Rise Set
Actual Time 7:17 AM PDT 6:08 PM PDT
Civil Twilight 6:51 AM PDT 6:34 PM PDT
Nautical Twilight 6:21 AM PDT 7:03 PM PDT
Astronomical Twilight 5:52 AM PDT 7:33 PM PDT
Moon 6:05 PM PDT 7:11 AM PDT
Length of Visible Light 11h 42m
Length of Day
10h 50m
Full, 100% of the Moon is Illuminated
Oct 29
Full
Oct 29
Full
Nov 6
Last Quarter
Nov 13
New
Nov 20
First Quarter

Hourly Weather History & Observations

Time (PDT) Temp. Dew Point Humidity Pressure Visibility Wind Dir Wind Speed Gust Speed Precip Events Conditions
12:26 AM 53.6 °F 44.6 °F 72% 30.00 in 10.0 mi Calm Calm - N/A   Mostly Cloudy
12:53 AM 55.0 °F 44.1 °F 67% 30.01 in 10.0 mi Calm Calm - N/A   Overcast
1:14 AM 55.4 °F 53.6 °F 94% 30.00 in 2.0 mi Calm Calm - N/A   Overcast
1:18 AM 55.4 °F 53.6 °F 94% 30.01 in 0.8 mi Calm Calm - N/A   Overcast
1:28 AM 53.6 °F 53.6 °F 100% 30.01 in 1.2 mi Calm Calm - N/A   Mostly Cloudy
1:30 AM 53.6 °F 51.8 °F 94% 30.01 in 3.0 mi Calm Calm - N/A   Mostly Cloudy
1:40 AM 51.8 °F 46.4 °F 82% 30.01 in 10.0 mi Calm Calm - N/A   Scattered Clouds
1:53 AM 53.1 °F 44.1 °F 71% 30.01 in 10.0 mi NE 3.5 mph - N/A   Clear
2:21 AM 53.6 °F 46.4 °F 77% 30.01 in 10.0 mi Calm Calm - N/A   Mostly Cloudy
2:31 AM 53.6 °F 51.8 °F 94% 30.01 in 1.8 mi Calm Calm - N/A   Overcast
2:39 AM 53.6 °F 51.8 °F 94% 30.01 in 0.5 mi ENE 3.5 mph - N/A Fog Fog
2:53 AM 53.1 °F 53.1 °F 100% 30.01 in 2.0 mi ENE 3.5 mph - N/A   Overcast
3:00 AM 53.6 °F 53.6 °F 100% 30.01 in 0.8 mi East 4.6 mph - N/A   Mist
3:08 AM 53.6 °F 53.6 °F 100% 30.01 in 1.0 mi East 3.5 mph - N/A   Mist
3:14 AM 53.6 °F 53.6 °F 100% 30.01 in 0.2 mi ENE 3.5 mph - N/A Fog Fog
3:27 AM 53.6 °F 53.6 °F 100% 30.01 in 1.0 mi Calm Calm - N/A   Overcast
3:33 AM 51.8 °F 51.8 °F 100% 30.01 in 3.0 mi Calm Calm - N/A   Overcast
3:53 AM 51.1 °F 48.9 °F 92% 30.01 in 10.0 mi Calm Calm - N/A   Scattered Clouds
4:53 AM 48.0 °F 43.0 °F 83% 30.01 in 10.0 mi Calm Calm - N/A   Clear
5:36 AM 46.4 °F 44.6 °F 93% 30.03 in 10.0 mi Calm Calm - N/A   Scattered Clouds
5:51 AM 46.4 °F 42.8 °F 87% 30.03 in 10.0 mi Calm Calm - N/A   Mostly Cloudy
5:53 AM 46.9 °F 43.0 °F 86% 30.03 in 10.0 mi Calm Calm - N/A   Mostly Cloudy
6:02 AM 48.2 °F 44.6 °F 87% 30.03 in 0.5 mi Calm Calm - N/A Fog Fog
6:53 AM 50.0 °F 48.0 °F 93% 30.05 in 0.5 mi Calm Calm - N/A Fog Fog
7:00 AM 50.0 °F 48.2 °F 94% 30.05 in 0.5 mi Calm Calm - N/A Fog Fog
7:34 AM 51.8 °F 51.8 °F 100% 30.05 in 0.2 mi Calm Calm - N/A Fog Fog
7:53 AM 52.0 °F 52.0 °F 100% 30.06 in 0.2 mi Calm Calm - N/A Fog Fog
8:14 AM 51.8 °F 51.8 °F 100% 30.06 in 0.2 mi Calm Calm - N/A Fog Fog
8:25 AM 51.8 °F 51.8 °F 100% 30.07 in 1.0 mi Calm Calm - N/A   Mostly Cloudy
8:53 AM 54.0 °F 53.1 °F 97% 30.08 in 0.5 mi Calm Calm - N/A Fog Fog
9:53 AM 55.9 °F 55.9 °F 100% 30.08 in 1.0 mi Calm Calm - N/A   Overcast
10:00 AM 55.4 °F 55.4 °F 100% 30.08 in 3.0 mi Calm Calm - N/A   Mostly Cloudy
10:09 AM 57.2 °F 57.2 °F 100% 30.08 in 1.8 mi SE 3.5 mph - N/A   Mostly Cloudy
10:20 AM 57.2 °F 57.2 °F 100% 30.08 in 2.0 mi SSE 3.5 mph - N/A   Mostly Cloudy
10:43 AM 57.2 °F 57.2 °F 100% 30.09 in 5.0 mi SSE 3.5 mph - N/A   Haze
10:53 AM 57.9 °F 57.0 °F 97% 30.09 in 5.0 mi SSE 4.6 mph - N/A   Haze
11:53 AM 64.0 °F 57.9 °F 80% 30.08 in 9.0 mi SW 5.8 mph - N/A   Scattered Clouds
12:53 PM 69.1 °F 55.9 °F 63% 30.05 in 10.0 mi West 5.8 mph - N/A   Clear
1:53 PM 73.0 °F 52.0 °F 48% 30.02 in 10.0 mi WSW 4.6 mph - N/A   Clear
2:53 PM 69.1 °F 53.1 °F 57% 30.01 in 10.0 mi WSW 4.6 mph - N/A   Clear
3:53 PM 66.9 °F 55.0 °F 66% 30.02 in 10.0 mi West 8.1 mph - N/A   Clear
4:53 PM 66.9 °F 57.9 °F 73% 30.01 in 10.0 mi WSW 8.1 mph - N/A   Clear
5:53 PM 62.1 °F 57.0 °F 84% 30.01 in 10.0 mi West 6.9 mph - N/A   Clear
6:53 PM 59.0 °F 55.9 °F 90% 30.02 in 10.0 mi WSW 3.5 mph - N/A   Clear
7:53 PM 57.0 °F 55.0 °F 93% 30.02 in 10.0 mi West 4.6 mph - N/A   Clear
8:53 PM 55.0 °F 53.1 °F 93% 30.03 in 10.0 mi WNW 3.5 mph - N/A   Clear
9:41 PM 53.6 °F 51.8 °F 94% 30.05 in 10.0 mi Calm Calm - N/A   Scattered Clouds
9:53 PM 52.0 °F 51.1 °F 97% 30.05 in 5.0 mi NW 3.5 mph - N/A   Scattered Clouds
10:07 PM 53.6 °F 51.8 °F 94% 30.05 in 4.0 mi Calm Calm - N/A   Scattered Clouds
10:53 PM 52.0 °F 52.0 °F 100% 30.06 in 4.0 mi Calm Calm - N/A   Overcast
11:53 PM 55.0 °F 53.1 °F 93% 30.05 in 8.0 mi Calm Calm - N/A   Overcast